Tracking 23757 objects as of 26-Oct-2021
HD Live streaming from Space Station
objects crossing your sky now

IRIDIUM 33 DEB

Track IRIDIUM 33 DEB now!
10-day predictions


NORAD ID: 34696
Int'l Code: 1997-051KT
Perigee: 745.8 km
Apogee: 946.6 km
Inclination: 86.2 °
Period: 101.7 minutes
Semi major axis: 7217 km
RCS: 0.0073 m2 (small)
Launch date: September 14, 1997
Source: United States (US)
Launch site: TYURATAM MISSILE AND SPACE COMPLEX (TTMTR)

Note: This is SATELLITE DEBRIS
aabbcc
Your satellite tracking list
Your tracking list is empty




NASA's NSSDC Master Catalog

Two Line Element Set (TLE):
1 34696U 97051KT  21298.05408566  .00001551  00000-0  70795-3 0  9999
2 34696  86.2078 330.1535 0139127  24.3468   4.3185 14.15967743650741
Source of the keplerian elements: AFSPC